7 * 24
多渠道服务支持
IRIDIUM 130 是 Iridium 卫星通信公司下一代卫星星座计划中的一部分,旨在提供更高效、更可靠的全球卫星通信服务。该卫星采用先进设计,支持语音、数据和互联网服务,特别适用于航空、航海和偏远地区用户。IRIDIUM 130 将与星座中的其他卫星协同工作,提升覆盖范围和传输速度,同时降低功耗和运营成本。该项目是 Iridium Next 计划的延续,致力于推动全球无缝通信的发展。
美国
(US)
| 数据来源 | 国际轨道数据 |
| 星历时间: | 2025-10-28T17:53:39+0800 21小时前 查看轨道信息 |
| 半长轴: | 7155.803km |
| 偏心率: | 0.0001773 |
| 轨道倾角: | 86.397° |
| 近地点辐角 | 89.195° |
| 升交点赤经 | 59.130° |
| 平近点角 | 270.945° |
| 近地点: | 776.399km |
| 远地点: | 778.937km |
| 周期: | 100.403分钟 |
| 每日圈数: | 14.342181 |